Helicity
25 63 75 11 11 -21 -22 19 128 -64 -14 8 60 59 105 78 -20 -24 17 73 88 52 4 3 13 13 17 5 17 8 -4 -13 -2 -2 -0 4 3 4 1 -1 -5 1 3 2 -0 1 5 7 3
22 26 29 -48 -38 -85 -74 -54 18 95 46 52 73 96 51 65 122 173 170 136 80 37 3 -1 11 9 12 6 13 -4 -3 -7 -1 -4 -2 -0 -0 4 -3 -3 -0 2 4 6 7 11 8 14 10
-50 2 22 11 -34 -102 -51 -6 17 3 37 21 90 25 31 31 102 113 100 77 64 8 4 5 10 6 11 2 6 -5 -10 -5 -3 -11 -3 9 2 1 2 6 2 4 10 7 18 19 17 14 13
-13 -32 -124 8 48 18 68 61 28 -2 20 101 149 25 -4 -10 42 109 63 46 20 -5 20 14 17 15 12 8 -4 -5 -9 -10 -14 -6 -3 12 11 8 6 8 11 8 7 7 11 13 14 12 15
1 -10 14 -92 -9 64 38 42 20 12 30 171 161 102 38 131 126 136 55 9 25 71 30 16 22 17 11 2 -6 -4 1 -3 -6 -0 2 16 13 13 17 21 22 20 15 16 17 18 16 15 16
-41 -50 -10 18 -9 8 -1 80 -32 46 105 137 180 178 94 129 83 39 41 168 140 85 37 18 32 23 15 1 -6 1 3 -8 -2 -0 8 16 15 23 28 32 46 41 19 12 22 28 32 28 24
-33 12 61 71 33 73 30 56 57 82 44 92 177 122 75 75 -15 -39 254 273 181 140 97 29 21 17 17 4 -2 1 6 -3 4 6 16 20 21 24 31 28 47 59 43 28 29 35 34 41 54
-19 11 1 51 31 19 9 28 161 173 116 117 148 21 94 39 -66 -35 148 147 115 60 26 38 13 11 -3 -5 14 10 7 5 10 14 17 27 25 30 40 40 45 57 58 54 48 46 50 57 59
115 70 52 41 57 -20 -38 274 137 33 -0 76 83 183 73 20 -58 -5 63 175 94 20 2 8 -0 10 7 -0 5 15 10 11 12 12 17 18 18 25 41 49 63 63 57 57 59 65 59 54 54
23 125 91 71 68 1 70 296 95 74 150 57 117 175 93 15 -42 16 20 159 81 29 6 -5 -19 -0 10 6 4 2 -1 -7 -1 8 13 -1 11 27 43 62 82 69 64 56 60 57 53 53 42
49 85 97 5 -3 -5 99 202 156 142 46 25 201 298 85 23 -42 18 41 112 98 97 86 73 -4 8 2 -5 -0 -13 -16 -15 -12 6 20 13 -1 14 19 57 48 39 51 34 34 39 47 50 51
-18 247 164 35 26 33 38 112 70 38 53 37 94 259 71 2 -54 34 42 36 144 216 136 72 66 14 -14 30 6 -14 -29 -36 -32 -10 18 21 14 13 25 86 83 77 35 47 45 50 59 74 98
134 55 31 15 32 15 18 45 36 73 100 28 68 218 93 4 -46 13 5 42 152 157 90 76 82 41 23 -2 -12 -8 -34 11 -11 -22 -0 30 37 49 48 101 113 67 45 74 76 107 64 83 91
54 136 -5 -3 17 -1 57 64 163 143 116 76 293 250 93 5 -36 15 24 69 189 127 112 179 95 50 37 9 13 7 -2 38 71 30 -7 -6 28 18 38 39 30 70 53 55 62 73 91 128 135
134 6 -117 -58 -18 -11 31 25 86 114 227 225 210 159 73 -15 -16 -20 -1 76 137 153 274 229 177 138 129 44 4 -14 4 34 163 38 -5 33 24 3 -13 -5 -29 -8 14 62 53 79 97 89 93
92 71 3 -16 -54 -8 164 -11 46 2 260 245 179 71 53 33 16 19 -18 67 169 264 300 221 160 98 72 -0 -29 -18 -38 50 89 32 37 112 79 25 5 -4 -1 21 -7 58 63 60 45 62 30
58 49 8 36 -58 122 110 2 -6 53 214 256 208 64 64 61 43 58 -46 107 191 223 202 166 95 58 35 -14 -21 -20 -13 -4 60 101 74 48 57 43 24 13 22 -8 -18 27 32 25 54 66 88
104 118 50 72 115 145 138 148 187 63 101 298 274 97 69 71 174 125 51 49 137 179 150 130 168 85 25 -8 -30 -55 -30 15 69 56 52 46 14 23 32 26 14 19 28 39 9 31 51 55 70
240 256 144 17 16 -9 73 457 202 140 57 106 277 211 122 104 134 158 114 105 88 164 188 164 213 147 89 60 7 -70 -17 26 71 65 68 51 34 13 17 18 40 39 41 33 46 49 37 45 80
-16 73 127 93 137 117 39 181 -103 148 114 18 75 233 263 175 174 164 93 141 155 238 275 205 192 192 178 102 18 -24 -9 -7 2 43 77 63 41 32 48 25 10 24 17 29 64 55 33 74 66
100 16 151 85 50 -11 187 89 186 25 1 -5 119 206 283 328 221 232 158 142 195 283 290 220 185 204 198 115 17 -43 -41 -20 2 -9 46 29 46 43 49 24 20 -7 7 36 69 46 55 60 60
35 1 20 26 -14 -10 70 -43 93 58 38 11 147 153 124 263 298 319 253 178 185 278 281 244 165 195 129 111 36 -17 -12 13 9 40 38 57 71 80 37 29 20 21 23 15 35 41 71 61 56
-9 110 -58 -38 -40 24 23 152 15 39 -2 28 -99 2 29 227 324 424 381 256 197 314 312 265 207 188 155 76 34 -4 -24 -27 -14 31 81 82 36 39 9 24 28 29 16 1 19 23 44 52 44
7 -11 -2 -36 36 -2 52 56 -104 60 72 -94 -41 -120 -12 52 319 364 371 266 236 354 382 333 276 161 137 75 6 -18 -14 -32 -29 -18 -3 93 89 69 31 21 53 39 15 1 13 10 34 37 38
-23 18 12 41 106 43 47 186 242 151 129 196 64 -32 -103 35 303 309 338 297 238 408 444 402 332 204 121 91 32 -6 -20 -21 -9 -20 -14 67 82 62 51 47 53 52 27 10 2 2 16 30 34
113 84 73 6 20 -21 48 43 68 1 -0 172 95 144 -102 -0 259 309 316 286 228 443 456 471 389 280 148 95 82 33 8 -14 -15 -30 -18 16 51 60 81 56 72 83 39 15 10 -6 14 30 42
33 44 105 80 9 37 -15 35 65 -11 -26 -66 9 -98 -99 78 327 275 286 267 239 354 447 496 442 323 224 167 81 77 47 32 3 19 -5 11 -0 -0 22 132 153 103 60 32 14 14 28 27 32
26 24 37 10 18 -8 4 -15 25 187 168 124 202 130 55 202 224 202 232 281 296 281 359 395 502 383 298 207 160 104 89 61 25 7 27 11 -7 -52 -31 76 163 99 56 64 57 49 33 34 43
-20 -28 34 57 78 33 34 16 -48 101 74 149 113 177 121 124 194 190 226 255 295 330 254 335 403 357 264 204 177 149 107 64 48 19 -8 -5 -12 -45 23 51 55 63 65 79 89 64 31 26 24
68 28 -49 14 12 34 74 46 162 226 135 173 31 81 73 146 200 167 259 265 318 318 357 450 393 344 292 235 178 128 93 66 48 34 -8 -2 14 -26 52 86 81 70 93 108 118 105 63 36 45
Wind_Speed
33 30 26 18 32 14 16 38 32 40 28 34 29 30 22 25 20 25 49 48 48 51 53 51 47 46 42 45 40 41 44 49 46 48 48 48 47 47 48 48 47 47 47 45 45 44 44 45 45
28 28 27 25 27 28 29 34 31 30 33 33 32 31 31 25 24 35 43 48 46 50 51 48 47 43 42 46 43 46 43 44 41 46 48 47 48 47 47 47 48 47 46 45 44 44 45 45 47
28 31 31 29 20 36 36 39 34 37 34 31 34 30 28 29 40 27 49 44 45 47 47 49 49 49 45 47 43 47 45 40 39 48 49 49 48 49 50 49 47 46 45 44 43 43 43 44 46
36 40 48 40 33 35 34 33 36 35 33 32 30 34 35 46 30 42 51 49 49 47 45 49 49 48 46 49 51 50 49 47 50 51 52 50 49 50 49 47 47 45 45 44 43 43 43 44 44
14 37 43 25 26 22 41 40 41 34 27 34 34 34 35 31 47 51 53 50 48 40 44 46 47 46 47 52 53 52 52 52 51 53 52 50 49 50 48 47 46 45 44 43 43 42 41 41 41
36 39 37 31 39 34 40 40 34 31 34 35 33 31 28 40 43 49 50 43 43 40 41 43 44 44 43 52 53 53 52 53 53 52 51 50 48 49 49 48 45 44 43 43 42 40 40 38 36
44 39 33 19 31 33 35 37 32 32 26 28 35 31 30 34 46 46 45 41 36 35 35 38 41 44 44 51 52 52 52 52 53 51 50 49 48 47 47 45 44 43 43 40 39 38 37 36 34
28 40 33 30 28 32 34 32 36 33 38 37 34 19 29 41 51 43 47 42 40 37 40 38 42 41 45 51 52 53 52 52 52 51 49 50 48 47 46 44 43 42 41 39 37 35 33 32 32
37 35 29 32 40 37 33 40 39 23 21 21 39 23 38 44 49 41 46 41 38 38 38 43 43 47 46 49 52 51 52 52 51 50 49 49 46 45 43 42 40 39 38 36 35 33 32 30 29
26 27 26 29 30 32 38 35 28 28 16 45 30 29 44 49 50 47 47 45 41 39 42 45 46 47 47 47 50 51 51 52 50 49 48 47 45 43 41 38 39 36 35 34 33 31 30 27 26
25 27 23 31 29 39 39 39 36 36 37 37 35 43 48 50 55 51 46 43 43 43 44 48 45 46 48 47 49 50 52 52 51 50 47 45 42 41 39 37 36 34 33 32 30 27 25 22 20
40 39 27 35 35 32 38 44 33 33 35 49 53 50 53 58 61 52 46 45 37 44 46 51 48 48 50 49 48 49 50 51 50 46 45 43 40 38 36 34 32 31 29 27 26 21 21 17 17
32 27 27 26 37 34 36 36 37 37 44 52 58 51 55 60 60 50 50 47 39 43 47 51 49 49 50 49 48 49 48 49 47 45 42 41 38 34 30 32 29 28 24 25 21 20 19 16 13
31 41 31 32 28 29 34 37 39 42 49 51 56 51 55 60 62 56 54 51 48 50 43 45 47 43 48 46 46 47 48 46 44 42 41 40 36 33 31 34 31 28 26 23 23 22 19 13 11
18 20 29 35 30 27 33 36 32 42 52 50 48 50 55 59 61 59 54 55 54 48 39 45 41 34 41 47 49 47 48 47 34 38 40 32 28 28 27 27 27 24 23 22 22 20 17 16 7
12 14 22 35 30 28 37 28 33 43 48 45 48 52 54 56 59 56 53 54 40 40 36 36 32 38 41 52 54 49 47 32 27 35 33 26 24 24 24 27 25 23 22 21 22 22 16 11 9
30 16 23 18 31 35 28 27 40 39 43 42 47 50 51 52 51 48 53 44 39 40 35 31 32 37 41 53 55 51 47 32 32 29 29 27 26 24 24 24 24 24 23 23 27 29 26 20 30
23 15 17 20 19 19 19 20 22 37 43 40 43 44 46 45 43 42 34 38 32 39 36 35 29 36 42 47 53 54 50 38 22 26 27 26 25 26 23 24 24 27 25 23 31 24 21 17 19
27 31 20 16 28 19 24 31 21 26 38 40 43 40 40 39 34 38 34 29 23 37 34 37 23 37 35 35 42 52 52 24 15 17 26 23 24 23 23 25 26 26 26 29 31 25 22 14 21
48 41 24 11 19 28 23 33 20 27 29 52 49 45 38 39 34 38 41 32 27 31 32 37 28 35 31 31 37 39 39 25 23 17 19 25 24 24 22 22 24 27 30 30 30 27 26 25 34
47 39 22 19 22 36 21 29 35 17 13 20 30 49 41 39 41 39 40 37 26 33 32 35 30 31 28 30 30 39 36 15 14 21 22 32 25 27 23 28 29 30 35 34 36 32 29 25 28
54 47 30 58 52 52 28 47 49 26 7 28 20 20 52 46 40 36 37 35 32 32 30 29 28 25 30 26 30 40 30 14 30 32 32 33 33 31 35 36 38 40 39 38 35 31 32 29 27
61 61 60 58 58 52 57 45 51 55 41 55 48 39 47 54 45 39 39 35 35 30 31 30 28 28 29 34 29 41 38 37 23 22 37 40 45 43 43 44 43 42 40 39 35 34 30 29 29
75 69 64 61 58 59 35 45 49 40 17 35 39 46 44 49 49 44 41 39 37 34 32 31 29 31 37 46 51 49 49 50 54 52 49 47 47 45 46 45 47 44 42 40 35 33 29 28 28
69 79 73 68 59 38 39 39 32 11 16 37 45 48 44 39 56 47 43 42 42 43 37 33 35 34 42 47 57 60 59 58 59 56 49 46 42 45 47 47 46 45 42 40 37 33 31 26 24
54 40 58 68 73 70 50 58 49 4 33 27 45 49 54 38 53 48 51 47 49 48 46 38 41 39 47 51 58 66 65 63 63 59 52 48 43 45 46 47 46 42 41 39 34 30 27 24 21
62 52 28 63 67 69 57 53 47 17 44 37 47 59 60 50 52 49 53 54 55 50 56 48 51 52 54 59 63 67 68 65 60 58 56 53 50 47 44 44 43 41 37 36 30 27 27 24 22
57 48 56 53 62 69 69 67 47 38 43 33 50 32 57 48 49 49 50 53 53 52 58 59 57 61 63 64 62 62 63 63 59 54 53 55 50 50 43 38 42 39 36 34 32 30 27 26 22
67 61 58 49 49 64 66 51 16 24 25 37 51 28 25 43 41 45 44 46 48 47 56 55 57 59 60 59 57 51 53 57 59 57 56 54 54 51 38 40 42 38 36 34 33 28 24 22 17
74 65 57 57 67 52 56 56 23 24 10 19 9 37 36 41 16 36 36 40 41 48 50 50 49 52 52 50 48 51 51 49 53 58 56 55 51 52 44 42 43 42 38 28 22 19 21 23 20
Wind_Direction
201 195 182 298 25 5 157 126 177 80 40 35 44 42 24 336 5 17 108 109 107 110 113 106 98 93 84 93 82 82 88 109 95 104 109 105 109 113 112 106 102 104 103 101 102 103 104 97 90
216 203 302 329 29 44 50 73 60 36 48 52 47 41 29 8 41 80 99 107 105 109 110 104 97 88 84 91 84 93 88 92 83 101 111 114 117 121 115 109 105 109 109 109 112 111 106 104 98
356 333 2 360 261 62 51 74 58 76 68 54 47 34 5 56 85 72 107 104 105 108 106 105 101 99 90 93 83 94 94 81 78 111 124 128 126 119 108 102 117 118 117 115 117 111 113 113 99
63 17 51 168 179 158 44 41 62 81 41 61 46 19 52 95 73 96 108 106 110 108 104 105 103 100 95 100 108 108 107 101 111 136 133 130 130 123 116 126 126 126 124 122 123 118 119 114 105
191 46 76 334 166 147 67 88 92 75 56 57 48 57 64 70 97 104 111 110 111 101 101 104 104 99 101 115 123 123 135 144 144 138 130 128 132 126 126 129 129 120 115 115 120 120 120 121 110
20 72 47 92 98 50 59 62 86 43 54 65 57 59 59 92 100 112 113 106 103 101 100 101 101 98 97 120 129 130 129 132 137 135 129 139 144 129 128 123 124 118 122 123 123 123 116 123 120
68 82 130 126 115 42 47 60 33 24 53 64 82 69 83 95 112 113 107 106 102 97 98 98 100 105 104 124 126 127 131 129 135 138 147 141 140 135 129 132 128 123 123 131 133 128 125 122 127
114 99 112 104 113 93 96 59 35 12 4 83 79 47 103 115 126 112 113 108 105 98 103 101 107 104 112 128 134 137 132 135 142 139 142 141 145 137 135 135 127 124 125 129 128 133 136 133 127
147 118 131 110 79 146 113 48 38 343 61 40 313 100 113 121 126 117 114 111 107 103 102 109 112 120 119 126 135 134 136 142 142 146 146 149 151 145 143 137 134 127 128 131 127 129 132 133 133
233 164 151 142 110 129 100 75 128 111 121 232 260 101 118 126 130 128 127 121 117 113 114 117 119 123 122 123 130 136 142 151 157 160 154 155 151 146 144 141 134 131 130 132 133 127 126 126 133
195 178 160 107 97 77 93 89 102 83 88 122 101 114 122 129 138 134 128 126 125 121 120 127 120 120 127 124 132 137 146 155 162 163 158 153 152 155 149 135 134 136 135 131 130 120 122 117 128
244 229 209 92 96 114 88 99 107 92 104 127 127 117 129 141 148 134 130 131 117 125 128 132 123 125 130 128 129 132 143 154 156 153 156 152 152 153 149 138 135 134 136 135 81 109 120 134 154
212 219 234 207 85 110 94 92 95 102 101 133 142 123 137 146 151 136 141 138 125 128 132 135 129 128 131 133 136 142 145 147 152 149 152 146 151 145 146 143 143 138 119 115 126 117 123 130 154
246 242 228 214 202 131 102 97 85 99 110 126 125 129 140 150 157 149 148 142 136 138 130 128 132 125 136 136 138 147 155 149 150 150 151 153 145 114 61 96 104 102 116 88 99 103 109 130 150
205 213 226 207 159 138 110 104 99 106 116 119 125 132 141 154 158 156 149 147 142 137 127 131 126 117 126 145 175 194 166 166 130 135 132 113 87 86 92 59 74 126 119 124 103 118 129 106 146
158 188 209 166 149 157 100 161 139 129 118 120 131 141 143 150 155 148 149 146 136 134 128 128 128 136 143 169 190 197 200 125 115 133 126 104 95 88 85 55 64 103 179 145 113 110 133 144 114
93 156 171 189 205 135 127 131 158 160 128 124 136 149 148 148 147 144 151 139 138 141 137 131 130 134 140 166 180 192 209 178 130 120 120 112 96 98 88 86 84 157 149 139 87 88 107 119 88
101 238 209 180 184 133 125 101 295 234 163 135 140 146 150 146 139 138 134 136 131 143 141 138 129 134 139 149 168 184 199 210 91 115 122 113 108 108 98 95 101 110 138 137 77 121 154 167 122
232 245 239 150 184 183 76 64 75 166 256 170 154 149 149 149 143 144 139 141 139 144 141 142 127 139 134 133 145 167 182 112 81 72 113 114 112 108 104 120 123 121 130 111 107 152 176 179 127
273 265 220 178 215 241 141 58 92 92 71 194 180 164 153 152 146 151 151 145 145 145 142 144 138 143 139 137 143 148 156 131 126 108 120 130 125 121 126 110 106 121 142 171 151 163 163 139 113
276 247 230 226 228 255 43 33 41 102 120 135 167 175 163 158 159 155 157 155 150 154 151 149 145 146 144 143 140 151 155 112 102 124 124 148 134 139 116 130 128 123 156 174 157 152 149 149 122
296 261 295 301 296 282 1 270 335 25 63 179 93 152 179 166 160 157 159 161 162 162 159 154 150 150 153 146 149 162 152 122 156 161 156 153 147 142 153 154 156 163 169 168 147 150 135 126 128
261 269 287 287 276 270 285 298 282 338 338 291 203 171 179 177 165 161 163 162 166 166 166 163 157 158 160 161 154 165 162 161 134 120 158 158 168 168 172 171 162 164 168 174 163 144 129 122 124
272 277 296 274 269 304 340 331 291 6 178 205 199 186 178 181 168 164 162 162 163 164 167 167 162 161 163 170 174 174 174 178 193 202 178 165 167 170 176 177 170 168 168 170 170 162 144 133 116
274 274 286 286 288 311 337 335 350 346 173 190 204 202 186 175 169 164 162 164 163 163 163 167 164 161 163 168 177 181 186 185 189 199 206 168 155 169 174 172 165 166 167 169 170 172 166 144 123
297 306 290 286 283 293 313 317 339 310 217 161 194 215 204 172 166 163 165 163 164 162 163 164 165 163 164 167 175 184 186 193 192 191 194 173 157 168 168 172 170 166 167 166 160 160 154 148 146
310 291 309 292 289 292 307 320 335 359 263 296 277 260 190 170 163 158 159 160 163 160 165 163 166 167 168 172 178 182 187 188 186 185 190 189 183 178 176 174 167 164 161 160 155 154 160 155 139
315 313 301 304 295 292 299 300 313 338 339 287 298 237 163 156 156 154 151 154 158 160 164 167 167 170 174 176 176 178 181 183 182 178 180 186 183 185 177 162 159 159 157 157 160 159 160 167 154
291 308 304 311 305 293 294 305 360 27 55 301 277 316 289 211 150 151 146 147 148 151 161 162 166 169 172 173 173 170 173 178 182 184 186 184 185 182 159 157 158 159 161 162 164 164 161 158 132
266 294 316 315 297 302 294 290 339 332 32 32 13 265 1 243 260 149 148 149 148 152 154 156 160 165 167 167 167 173 172 172 178 184 185 185 181 184 173 167 171 172 172 166 162 165 171 182 185